GW5604 Weather Reports


Display with metric or nautical units.
time (UTC)temp
F
wind
direction
speed
MPH
gust
MPH
rain 1hr
in
rain 24hr
in
rain mn
in
humidity
%
barometer
mb
20260510230508 66 105 3.0 5.0 0.00 0.00 0.00 50 1018.5
20260510230004 66 139 3.0 3.0 0.00 0.00 0.00 49 1018.8
20260510225501 66 111 4.0 5.0 0.00 0.00 0.00 49 1018.5
20260510224956 67 126 5.0 7.0 0.00 0.00 0.00 49 1018.6
20260510224453 66 159 10.0 13.0 0.00 0.00 0.00 48 1018.3
20260510223950 67 101 5.0 8.0 0.00 0.00 0.00 47 1018.6
20260510223447 67 166 6.0 8.0 0.00 0.00 0.00 48 1018.6
20260510222944 66 158 5.0 7.0 0.00 0.00 0.00 48 1018.5
20260510222442 68 142 8.0 15.0 0.00 0.00 0.00 47 1018.6
20260510221938 67 159 6.0 7.0 0.00 0.00 0.00 46 1018.5
20260510221434 67 111 4.0 5.0 0.00 0.00 0.00 46 1018.8
20260510220930 68 134 6.0 9.0 0.00 0.00 0.00 45 1018.4
20260510220426 68 169 2.0 3.0 0.00 0.00 0.00 44 1018.3
20260510215922 68 94 2.0 3.0 0.00 0.00 0.00 44 1018.3
20260510215420 68 109 6.0 8.0 0.00 0.00 0.00 43 1018.3
20260510214918 68 134 1.0 2.0 0.00 0.00 0.00 42 1018.1
20260510214415 69 102 5.0 6.0 0.00 0.00 0.00 42 1018.5
20260510213912 68 129 3.0 3.0 0.00 0.00 0.00 41 1018.5
20260510213408 69 72 3.0 5.0 0.00 0.00 0.00 40 1018.4
20260510212904 68 149 1.0 1.0 0.00 0.00 0.00 42 1018.5
20260510212401 69 100 2.0 2.0 0.00 0.00 0.00 38 1018.3
20260510211858 68 146 7.0 8.0 0.00 0.00 0.00 42 1018.4
20260510211355 68 137 6.0 7.0 0.00 0.00 0.00 42 1018.3
20260510210845 68 108 5.0 6.0 0.00 0.00 0.00 42 1018.4
20260510210340 69 75 9.0 11.0 0.00 0.00 0.00 41 1018.1
20260510205839 68 85 7.0 9.0 0.00 0.00 0.00 41 1018.2
20260510205335 69 151 11.0 14.0 0.00 0.00 0.00 41 1018.1
20260510204831 69 152 4.0 6.0 0.00 0.00 0.00 41 1018.3
20260510204327 70 104 6.0 7.0 0.00 0.00 0.00 40 1018.4
20260510203824 68 138 2.0 2.0 0.00 0.00 0.00 40 1018.5
20260510203322 68 137 2.0 3.0 0.00 0.00 0.00 40 1018.4
20260510202822 69 105 6.0 10.0 0.00 0.00 0.00 40 1018.4
20260510202318 68 171 5.0 6.0 0.00 0.00 0.00 39 1018.4
20260510201814 69 148 8.0 9.0 0.00 0.00 0.00 38 1018.8
20260510201312 68 129 5.0 5.0 0.00 0.00 0.00 38 1018.4
20260510200808 69 168 3.0 3.0 0.00 0.00 0.00 38 1018.4
20260510200306 68 107 3.0 3.0 0.00 0.00 0.00 38 1018.5
20260510195802 68 109 7.0 9.0 0.00 0.00 0.00 35 1018.8
20260510195259 68 142 2.0 2.0 0.00 0.00 0.00 38 1019.0
20260510194758 68 104 6.0 8.0 0.00 0.00 0.00 37 1018.8
20260510194255 68 103 3.0 3.0 0.00 0.00 0.00 35 1018.6
20260510193751 68 145 6.0 8.0 0.00 0.00 0.00 37 1018.6
20260510193246 68 71 2.0 3.0 0.00 0.00 0.00 40 1018.4
20260510192742 68 159 5.0 7.0 0.00 0.00 0.00 41 1018.8
20260510192237 67 151 5.0 7.0 0.00 0.00 0.00 43 1018.8
20260510191733 67 159 4.0 6.0 0.00 0.00 0.00 43 1018.8
20260510191229 67 153 2.0 5.0 0.00 0.00 0.00 41 1018.9
20260510190727 68 117 11.0 16.0 0.00 0.00 0.00 41 1018.9
20260510190224 67 103 3.0 3.0 0.00 0.00 0.00 42 1018.6
20260510185721 68 153 7.0 9.0 0.00 0.00 0.00 44 1018.8
20260510185220 67 109 7.0 9.0 0.00 0.00 0.00 45 1018.8
20260510184715 68 138 5.0 8.0 0.00 0.00 0.00 42 1018.6
20260510184212 68 132 9.0 10.0 0.00 0.00 0.00 42 1018.9
20260510183707 68 139 8.0 9.0 0.00 0.00 0.00 42 1018.6
20260510183202 67 138 4.0 6.0 0.00 0.00 0.00 42 1018.9
20260510182659 67 129 4.0 5.0 0.00 0.00 0.00 40 1018.8
20260510182154 68 143 6.0 7.0 0.00 0.00 0.00 38 1018.9
20260510181652 68 103 4.0 5.0 0.00 0.00 0.00 39 1018.8
20260510181148 67 115 9.0 11.0 0.00 0.00 0.00 38 1018.9
20260510180644 67 75 5.0 6.0 0.00 0.00 0.00 35 1018.9
20260510180142 67 162 11.0 17.0 0.00 0.00 0.00 36 1019.0
20260510175638 67 159 10.0 11.0 0.00 0.00 0.00 34 1019.1
20260510175133 66 108 5.0 7.0 0.00 0.00 0.00 35 1019.0
20260510174632 67 122 7.0 8.0 0.00 0.00 0.00 37 1019.1
20260510174129 67 134 3.0 6.0 0.00 0.00 0.00 33 1019.1
20260510173624 66 99 4.0 6.0 0.00 0.00 0.00 29 1019.0
20260510173121 67 113 2.0 2.0 0.00 0.00 0.00 31 1019.2
20260510172616 67 139 1.0 2.0 0.00 0.00 0.00 30 1019.0
20260510172113 67 122 3.0 5.0 0.00 0.00 0.00 30 1019.2
20260510171610 66 160 2.0 2.0 0.00 0.00 0.00 33 1019.2
20260510171108 66 150 1.0 1.0 0.00 0.00 0.00 33 1019.2
20260510170604 65 104 4.0 6.0 0.00 0.00 0.00 32 1019.2
20260510170100 65 95 3.0 5.0 0.00 0.00 0.00 37 1019.4
20260510165556 65 122 2.0 3.0 0.00 0.00 0.00 36 1019.1
20260510165053 64 89 6.0 8.0 0.00 0.00 0.00 39 1019.4
20260510164550 65 106 4.0 6.0 0.00 0.00 0.00 36 1019.0
20260510164047 64 108 4.0 5.0 0.00 0.00 0.00 41 1019.4
20260510163542 64 142 2.0 3.0 0.00 0.00 0.00 43 1019.2
20260510163039 65 125 2.0 2.0 0.00 0.00 0.00 43 1019.1
20260510162539 65 139 2.0 2.0 0.00 0.00 0.00 45 1019.1
20260510162036 65 130 3.0 5.0 0.00 0.00 0.00 46 1019.2
20260510161532 66 135 2.0 2.0 0.00 0.00 0.00 41 1019.3
20260510161029 64 145 3.0 3.0 0.00 0.00 0.00 43 1019.3
20260510160526 65 142 8.0 11.0 0.00 0.00 0.00 42 1019.3
20260510160025 64 147 1.0 1.0 0.00 0.00 0.00 44 1019.3
20260510155522 64 160 2.0 2.0 0.00 0.00 0.00 44 1019.2
20260510155018 64 153 1.0 2.0 0.00 0.00 0.00 47 1019.3
20260510154514 64 128 2.0 2.0 0.00 0.00 0.00 46 1019.4
20260510154015 63 136 1.0 1.0 0.00 0.00 0.00 50 1019.2
20260510153510 63 119 3.0 3.0 0.00 0.00 0.00 50 1019.2
20260510153007 63 155 5.0 6.0 0.00 0.00 0.00 49 1019.1
20260510152504 64 137 3.0 3.0 0.00 0.00 0.00 48 1019.3
20260510152000 63 168 4.0 6.0 0.00 0.00 0.00 47 1019.3
20260510151457 62 124 3.0 5.0 0.00 0.00 0.00 48 1019.3
20260510150954 62 133 4.0 5.0 0.00 0.00 0.00 48 1019.2
20260510150450 62 157 4.0 6.0 0.00 0.00 0.00 47 1019.1
20260510145946 61 117 1.0 2.0 0.00 0.00 0.00 53 1019.4
20260510145442 61 108 3.0 5.0 0.00 0.00 0.00 52 1019.2
20260510144939 61 152 6.0 10.0 0.00 0.00 0.00 53 1019.2
20260510144435 61 188 9.0 13.0 0.00 0.00 0.00 54 1019.3
20260510143931 61 183 4.0 5.0 0.00 0.00 0.00 57 1019.2
20260510143427 61 152 8.0 9.0 0.00 0.00 0.00 57 1019.2
20260510142924 61 93 4.0 5.0 0.00 0.00 0.00 57 1019.1
20260510142421 60 165 3.0 3.0 0.00 0.00 0.00 59 1019.1
20260510141917 60 96 7.0 10.0 0.00 0.00 0.00 58 1019.1
20260510141414 60 135 3.0 5.0 0.00 0.00 0.00 59 1019.1
20260510140912 60 107 5.0 7.0 0.00 0.00 0.00 59 1019.0
20260510140408 60 114 3.0 5.0 0.00 0.00 0.00 61 1019.0
20260510135907 59 159 2.0 2.0 0.00 0.00 0.00 62 1018.9
20260510135403 58 122 3.0 3.0 0.00 0.00 0.00 62 1018.9
20260510134901 58 133 2.0 2.0 0.00 0.00 0.00 65 1019.1
20260510134357 58 133 3.0 3.0 0.00 0.00 0.00 63 1018.9
20260510133853 58 107 5.0 7.0 0.00 0.00 0.00 68 1018.9
20260510133349 58 136 5.0 6.0 0.00 0.00 0.00 68 1019.0
20260510132845 57 106 4.0 5.0 0.00 0.00 0.00 67 1018.8
20260510132343 57 160 6.0 7.0 0.00 0.00 0.00 69 1018.9
20260510131840 56 136 3.0 3.0 0.00 0.00 0.00 69 1018.8
20260510131338 56 127 3.0 5.0 0.00 0.00 0.00 71 1018.6
20260510130834 56 109 8.0 10.0 0.00 0.00 0.00 72 1018.9
20260510130331 56 102 4.0 8.0 0.00 0.00 0.00 74 1018.8
20260510125827 55 133 3.0 3.0 0.00 0.00 0.00 75 1018.8
20260510125324 55 120 4.0 7.0 0.00 0.00 0.00 76 1018.5
20260510124821 55 145 5.0 6.0 0.00 0.00 0.00 77 1018.5
20260510124318 55 130 7.0 13.0 0.00 0.00 0.00 77 1018.4
20260510123813 54 115 3.0 3.0 0.00 0.00 0.00 77 1018.2
20260510123309 54 75 6.0 7.0 0.00 0.00 0.00 79 1018.4
20260510122805 54 117 5.0 8.0 0.00 0.00 0.00 79 1018.3
20260510122305 53 115 5.0 6.0 0.00 0.00 0.00 80 1018.4
20260510121758 53 107 4.0 6.0 0.00 0.00 0.00 81 1018.3
20260510121256 53 62 5.0 7.0 0.00 0.00 0.00 82 1018.0
20260510120753 53 125 4.0 7.0 0.00 0.00 0.00 82 1017.9
20260510120249 53 125 3.0 3.0 0.00 0.00 0.00 83 1018.2
20260510115745 52 124 4.0 6.0 0.00 0.00 0.00 84 1017.9
20260510115243 52 89 6.0 9.0 0.00 0.00 0.00 86 1017.5
20260510114738 52 142 2.0 5.0 0.00 0.00 0.00 87 1017.7
20260510114236 51 93 6.0 8.0 0.00 0.00 0.00 87 1017.6
20260510113731 51 131 3.0 3.0 0.00 0.00 0.00 88 1017.4
20260510113228 51 107 8.0 11.0 0.00 0.00 0.00 88 1017.6
20260510112724 51 118 2.0 2.0 0.00 0.00 0.00 89 1017.4
20260510112221 51 206 5.0 7.0 0.00 0.00 0.00 90 1017.2
20260510111717 51 87 5.0 9.0 0.00 0.00 0.00 90 1017.2
20260510111214 51 137 4.0 7.0 0.00 0.00 0.00 91 1017.1
20260510110708 51 144 2.0 3.0 0.00 0.00 0.00 91 1017.1
20260510110206 51 120 3.0 6.0 0.00 0.00 0.00 91 1016.7
20260510105706 50 179 4.0 5.0 0.00 0.00 0.00 92 1016.5
20260510105206 50 119 3.0 3.0 0.00 0.00 0.00 92 1016.5
20260510104703 50 100 3.0 3.0 0.00 0.00 0.00 92 1016.6
20260510104200 50 103 4.0 7.0 0.00 0.00 0.00 92 1016.5
20260510103657 50 113 5.0 7.0 0.00 0.00 0.00 92 1016.6
20260510103154 50 81 7.0 13.0 0.00 0.00 0.00 92 1016.3
20260510102654 50 131 4.0 6.0 0.00 0.00 0.00 91 1016.3
20260510102150 51 89 3.0 3.0 0.00 0.00 0.00 90 1016.3
20260510101648 51 155 10.0 11.0 0.00 0.00 0.00 90 1016.3
20260510101146 51 142 4.0 6.0 0.00 0.00 0.00 89 1016.2
20260510100641 51 116 6.0 7.0 0.00 0.00 0.00 89 1016.3
20260510100139 51 138 5.0 6.0 0.00 0.00 0.00 89 1016.1
20260510095635 51 88 4.0 6.0 0.00 0.00 0.00 87 1016.2
20260510095130 52 88 4.0 7.0 0.00 0.00 0.00 87 1015.8
20260510094629 51 106 6.0 9.0 0.00 0.00 0.00 87 1015.9
20260510094125 51 116 4.0 6.0 0.00 0.00 0.00 89 1015.7
20260510093621 51 97 8.0 9.0 0.00 0.00 0.00 90 1015.8
20260510093118 51 109 4.0 5.0 0.00 0.00 0.00 90 1015.7
20260510092615 52 107 3.0 3.0 0.00 0.00 0.00 90 1015.7
20260510092115 52 111 4.0 5.0 0.00 0.00 0.00 90 1015.7
20260510091611 52 144 8.0 11.0 0.00 0.00 0.00 90 1015.9
20260510091108 52 125 5.0 7.0 0.00 0.00 0.00 90 1015.7
20260510090605 52 94 5.0 7.0 0.00 0.00 0.00 89 1015.7
20260510090100 52 109 7.0 9.0 0.00 0.00 0.00 89 1015.6
20260510085555 52 105 5.0 6.0 0.00 0.00 0.00 88 1015.7
20260510085052 52 120 6.0 8.0 0.00 0.00 0.00 88 1015.4
20260510084548 52 108 5.0 9.0 0.00 0.00 0.00 89 1015.3
20260510084045 52 132 4.0 6.0 0.00 0.00 0.00 89 1015.0
20260510083542 52 173 4.0 6.0 0.00 0.00 0.00 89 1015.2
20260510083038 52 115 4.0 7.0 0.00 0.00 0.00 89 1015.5
20260510082535 52 106 7.0 9.0 0.00 0.00 0.00 88 1015.3
20260510082030 52 135 4.0 6.0 0.00 0.00 0.00 89 1014.9
20260510081525 52 95 7.0 7.0 0.00 0.00 0.00 88 1015.0
20260510081021 52 156 4.0 5.0 0.00 0.00 0.00 89 1014.8
20260510080520 52 133 4.0 6.0 0.00 0.00 0.00 89 1014.9
20260510080018 52 177 3.0 5.0 0.00 0.00 0.00 89 1014.9
20260510075515 52 120 2.0 3.0 0.00 0.00 0.00 88 1015.2
20260510075011 52 111 5.0 8.0 0.00 0.00 0.00 88 1014.8
20260510074510 52 93 3.0 3.0 0.00 0.00 0.00 88 1014.9
20260510074004 52 103 5.0 7.0 0.00 0.00 0.00 88 1015.0
20260510073501 52 101 3.0 5.0 0.00 0.00 0.00 88 1014.7
20260510072957 52 148 3.0 5.0 0.00 0.00 0.00 88 1014.9
20260510072454 52 141 2.0 2.0 0.00 0.00 0.00 88 1014.8
20260510071950 52 138 2.0 3.0 0.00 0.00 0.00 87 1014.6
20260510071446 52 121 3.0 5.0 0.00 0.00 0.00 87 1014.7
20260510070944 52 135 1.0 2.0 0.00 0.00 0.00 87 1014.6
20260510070442 52 93 4.0 5.0 0.00 0.00 0.00 86 1014.8
20260510065937 52 94 4.0 5.0 0.00 0.00 0.00 86 1014.9
20260510065434 53 150 2.0 2.0 0.00 0.00 0.00 85 1014.8
20260510064930 53 131 2.0 2.0 0.00 0.00 0.00 85 1014.9
20260510064428 53 149 1.0 2.0 0.00 0.00 0.00 85 1014.9
20260510063924 53 148 1.0 1.0 0.00 0.00 0.00 84 1014.9
20260510063420 53 147 1.0 1.0 0.00 0.00 0.00 84 1015.0
20260510062919 53 154 1.0 1.0 0.00 0.00 0.00 84 1015.0
20260510062413 53 137 1.0 1.0 0.00 0.00 0.00 84 1015.0
20260510061909 53 152 1.0 1.0 0.00 0.00 0.00 83 1015.0
20260510061406 54 142 2.0 3.0 0.00 0.00 0.00 82 1015.4
20260510060902 54 116 3.0 3.0 0.00 0.00 0.00 82 1015.0
20260510060359 54 147 1.0 2.0 0.00 0.00 0.00 82 1015.0
20260510055855 54 142 2.0 2.0 0.00 0.00 0.00 82 1015.5
20260510055355 54 132 2.0 2.0 0.00 0.00 0.00 82 1015.3
20260510054854 54 136 1.0 2.0 0.00 0.00 0.00 81 1015.4
20260510054350 54 153 1.0 2.0 0.00 0.00 0.00 81 1015.4
20260510053845 54 141 1.0 2.0 0.00 0.00 0.00 81 1015.5
20260510053341 54 93 2.0 2.0 0.00 0.00 0.00 81 1015.4
20260510052837 55 129 1.0 2.0 0.00 0.00 0.00 80 1015.6
20260510052333 54 111 1.0 2.0 0.00 0.00 0.00 80 1015.4
20260510051829 54 141 1.0 1.0 0.00 0.00 0.00 80 1015.4
20260510051326 55 144 2.0 2.0 0.00 0.00 0.00 80 1015.2
20260510050823 55 151 2.0 2.0 0.00 0.00 0.00 80 1015.4
20260510050320 55 138 2.0 2.0 0.00 0.00 0.00 80 1015.6
20260510045817 55 150 1.0 1.0 0.00 0.00 0.00 80 1015.5
20260510045313 54 150 1.0 1.0 0.00 0.00 0.00 80 1015.5
20260510044811 55 150 1.0 1.0 0.00 0.00 0.00 80 1015.5
20260510044308 55 149 1.0 2.0 0.00 0.00 0.00 80 1015.2
20260510043804 55 153 1.0 1.0 0.00 0.00 0.00 79 1015.2
20260510043254 55 142 3.0 3.0 0.00 0.00 0.00 78 1015.2
20260510042752 55 120 1.0 2.0 0.00 0.00 0.00 79 1015.3
20260510042247 55 146 1.0 1.0 0.00 0.00 0.00 78 1015.5
20260510041744 55 147 1.0 1.0 0.00 0.00 0.00 79 1015.2
20260510041241 55 140 2.0 3.0 0.00 0.00 0.00 78 1015.4
20260510040739 55 150 1.0 2.0 0.00 0.00 0.00 78 1015.2
20260510040236 55 153 1.0 1.0 0.00 0.00 0.00 78 1015.3
20260510035730 55 146 1.0 2.0 0.00 0.00 0.00 77 1015.5
20260510035226 55 140 1.0 1.0 0.00 0.00 0.00 77 1015.3
20260510034722 55 94 2.0 2.0 0.00 0.00 0.00 77 1015.0
20260510034221 55 128 3.0 5.0 0.00 0.00 0.00 77 1015.2
20260510033716 55 137 3.0 3.0 0.00 0.00 0.00 76 1015.4
20260510033215 55 134 2.0 2.0 0.00 0.00 0.00 76 1015.4
20260510032711 56 132 2.0 2.0 0.00 0.00 0.00 76 1015.5
20260510032207 56 132 2.0 2.0 0.00 0.00 0.00 75 1015.4
20260510031702 56 146 2.0 2.0 0.00 0.00 0.00 75 1015.4
20260510031159 56 109 1.0 1.0 0.00 0.00 0.00 74 1015.3
20260510030658 56 131 1.0 1.0 0.00 0.00 0.00 74 1015.6
20260510030156 56 118 2.0 2.0 0.00 0.00 0.00 74 1015.5
20260510025653 56 137 3.0 5.0 0.00 0.00 0.00 73 1015.2
20260510025150 56 143 2.0 2.0 0.00 0.00 0.00 73 1015.0
20260510024648 56 144 2.0 2.0 0.00 0.00 0.00 73 1015.4
20260510024144 56 114 2.0 2.0 0.00 0.00 0.00 72 1015.2
20260510023639 56 117 1.0 2.0 0.00 0.00 0.00 72 1015.3
20260510023137 56 143 1.0 2.0 0.00 0.00 0.00 72 1015.2
20260510022636 55 133 2.0 3.0 0.00 0.00 0.00 72 1015.2
20260510022126 55 142 1.0 1.0 0.00 0.00 0.00 72 1015.0
20260510021621 55 147 1.0 1.0 0.00 0.00 0.00 72 1015.4
20260510021120 55 144 1.0 1.0 0.00 0.00 0.00 72 1014.9
20260510020613 56 143 0.0 1.0 0.00 0.00 0.00 72 1014.9
20260510020109 56 144 0.0 0.0 0.00 0.00 0.00 71 1014.8
20260510015605 56 147 1.0 1.0 0.00 0.00 0.00 71 1015.0
20260510015102 56 150 1.0 1.0 0.00 0.00 0.00 71 1014.6
20260510014557 56 155 1.0 1.0 0.00 0.00 0.00 71 1014.8
20260510014055 56 137 1.0 1.0 0.00 0.00 0.00 71 1014.4
20260510013550 56 122 1.0 1.0 0.00 0.00 0.00 71 1014.5
20260510013046 56 136 1.0 1.0 0.00 0.00 0.00 71 1014.4
20260510012545 56 149 1.0 1.0 0.00 0.00 0.00 71 1014.4
20260510012042 56 143 1.0 1.0 0.00 0.00 0.00 71 1014.5
20260510011542 56 150 1.0 1.0 0.00 0.00 0.00 71 1014.3
20260510011037 56 140 1.0 1.0 0.00 0.00 0.00 71 1014.5
20260510010534 56 136 1.0 1.0 0.00 0.00 0.00 71 1014.2
20260510010031 56 152 1.0 1.0 0.00 0.00 0.00 71 1014.2
20260510005521 56 137 1.0 2.0 0.00 0.00 0.00 70 1014.2
20260510005019 57 153 0.0 0.0 0.00 0.00 0.00 70 1013.9
20260510004517 57 151 1.0 1.0 0.00 0.00 0.00 69 1013.7
20260510004015 57 154 1.0 1.0 0.00 0.00 0.00 70 1013.5
20260510003511 57 153 0.0 0.0 0.00 0.00 0.00 69 1013.6
20260510003007 57 152 1.0 1.0 0.00 0.00 0.00 68 1013.3
20260510002503 58 149 1.0 1.0 0.00 0.00 0.00 67 1013.4
20260510002000 58 116 3.0 3.0 0.00 0.00 0.00 66 1013.1
20260510001457 58 112 3.0 3.0 0.00 0.00 0.00 66 1013.0
20260510000955 58 124 1.0 2.0 0.00 0.00 0.00 65 1013.1
20260510000449 58 124 4.0 5.0 0.00 0.00 0.00 65 1013.1
20260509235946 58 139 3.0 5.0 0.00 0.00 0.00 65 1013.3
20260509235443 59 113 4.0 7.0 0.00 0.00 0.00 65 1013.0
20260509234940 59 118 3.0 5.0 0.00 0.00 0.00 64 1013.0
20260509234436 59 94 6.0 8.0 0.00 0.00 0.00 63 1013.3
20260509233934 59 93 3.0 3.0 0.00 0.00 0.00 63 1013.1
20260509233432 60 94 7.0 11.0 0.00 0.00 0.00 62 1012.9
20260509232927 59 128 4.0 5.0 0.00 0.00 0.00 63 1012.9
20260509232426 60 138 3.0 3.0 0.00 0.00 0.00 61 1013.3
20260509231921 60 163 5.0 7.0 0.00 0.00 0.00 61 1013.0
20260509231418 60 168 3.0 5.0 0.00 0.00 0.00 61 1013.1
20260509230917 60 106 6.0 8.0 0.00 0.00 0.00 61 1012.8